QPF
0.03 0.04 0.05 0.06 0.08 0.07 0.07 0.08 0.08 0.07 0.07 0.06 0.06 0.06 0.06 0.05 0.05 0.05 0.05 0.05 0.05 0.04 0.04 0.04 0.04 0.05 0.06 0.06 0.08 0.09 0.09 0.08 0.08 0.09 0.08 0.08 0.07 0.07
0.06 0.07 0.08 0.09 0.09 0.06 0.06 0.07 0.07 0.08 0.07 0.08 0.08 0.07 0.05 0.03 0.06 0.05 0.06 0.07 0.06 0.05 0.05 0.04 0.04 0.04 0.05 0.05 0.06 0.07 0.07 0.07 0.07 0.08 0.08 0.09 0.10 0.09
0.08 0.07 0.07 0.07 0.07 0.07 0.07 0.09 0.10 0.10 0.09 0.07 0.07 0.07 0.05 0.04 0.04 0.05 0.04 0.04 0.04 0.05 0.04 0.03 0.04 0.05 0.05 0.06 0.06 0.06 0.06 0.07 0.08 0.09 0.10 0.11 0.12 0.12
0.06 0.06 0.05 0.05 0.05 0.06 0.08 0.10 0.11 0.12 0.11 0.09 0.09 0.07 0.06 0.06 0.06 0.05 0.04 0.03 0.03 0.04 0.03 0.03 0.03 0.04 0.05 0.06 0.06 0.06 0.06 0.06 0.08 0.11 0.12 0.11 0.10 0.10
0.04 0.06 0.05 0.05 0.05 0.06 0.07 0.09 0.11 0.11 0.09 0.06 0.05 0.06 0.07 0.07 0.07 0.06 0.04 0.04 0.03 0.04 0.04 0.03 0.03 0.04 0.05 0.05 0.05 0.05 0.06 0.08 0.09 0.09 0.10 0.09 0.09 0.09
0.05 0.06 0.04 0.05 0.06 0.07 0.06 0.08 0.10 0.10 0.08 0.06 0.06 0.07 0.07 0.06 0.05 0.05 0.04 0.05 0.05 0.04 0.04 0.04 0.03 0.04 0.04 0.04 0.04 0.04 0.05 0.06 0.06 0.07 0.07 0.06 0.06 0.06
0.05 0.04 0.03 0.03 0.04 0.06 0.06 0.08 0.10 0.10 0.07 0.07 0.06 0.07 0.06 0.05 0.05 0.05 0.05 0.06 0.06 0.04 0.05 0.05 0.03 0.02 0.02 0.02 0.02 0.03 0.02 0.02 0.02 0.03 0.03 0.03 0.04 0.04
0.06 0.05 0.03 0.03 0.03 0.04 0.03 0.03 0.05 0.05 0.05 0.05 0.04 0.05 0.05 0.05 0.05 0.05 0.05 0.04 0.04 0.04 0.04 0.03 0.02 0.01 0.01 0.01 0.01 0.02 0.01 0.01 0.01 0.02 0.02 0.03 0.03 0.05
0.06 0.06 0.04 0.03 0.02 0.01 0.02 0.01 0.02 0.02 0.03 0.03 0.04 0.04 0.04 0.04 0.05 0.05 0.04 0.04 0.04 0.03 0.03 0.02 0.01 0.01 0.01 0.01 0.01 0.01 0.01 0.01 0.01 0.02 0.03 0.04 0.05 0.06
0.07 0.06 0.06 0.04 0.02 0.02 0.02 0.03 0.03 0.03 0.03 0.02 0.02 0.02 0.02 0.02 0.04 0.04 0.04 0.03 0.02 0.02 0.02 0.02 0.02 0.01 0.01 0.01 0.01 0.01 0.01 0.01 0.01 0.02 0.03 0.03 0.04 0.04
0.04 0.05 0.06 0.05 0.04 0.03 0.04 0.05 0.05 0.04 0.03 0.02 0.02 0.02 0.02 0.02 0.03 0.03 0.03 0.03 0.02 0.02 0.02 0.02 0.02 0.02 0.02 0.02 0.01 0.01 0.02 0.02 0.02 0.02 0.03 0.03 0.03 0.03
0.03 0.03 0.03 0.04 0.06 0.06 0.05 0.07 0.05 0.05 0.03 0.03 0.02 0.01 0.01 0.01 0.02 0.02 0.02 0.03 0.03 0.02 0.03 0.03 0.02 0.03 0.03 0.03 0.03 0.03 0.03 0.04 0.04 0.04 0.03 0.03 0.04 0.03
0.03 0.03 0.02 0.01 0.01 0.02 0.02 0.03 0.04 0.05 0.04 0.03 0.02 0.02 0.02 0.02 0.02 0.02 0.03 0.04 0.04 0.05 0.05 0.05 0.05 0.05 0.05 0.05 0.05 0.05 0.06 0.06 0.05 0.05 0.05 0.04 0.04 0.04
0.03 0.03 0.02 0.01 0.01 0.01 0.02 0.02 0.02 0.02 0.02 0.02 0.02 0.02 0.02 0.01 0.01 0.02 0.03 0.04 0.05 0.06 0.07 0.06 0.06 0.06 0.06 0.06 0.06 0.05 0.05 0.04 0.04 0.04 0.05 0.05 0.04 0.04
0.03 0.02 0.02 0.02 0.01 0.01 0.01 0.01 0.01 0.01 0.01 0.02 0.02 0.02 0.03 0.02 0.02 0.02 0.02 0.02 0.02 0.03 0.03 0.03 0.03 0.04 0.04 0.04 0.04 0.04 0.04 0.04 0.03 0.03 0.03 0.03 0.03 0.02
0.02 0.01 0.01 0.01 0.01 0.01 0.01 0.01 0.01 0.01 0.01 0.02 0.02 0.03 0.04 0.03 0.03 0.02 0.01 0.01 0.01 0.01 0.01 0.01 0.02 0.02 0.02 0.02 0.03 0.03 0.04 0.04 0.04 0.02 0.02 0.02 0.02 0.01
0.02 0.02 0.01 0.01 0.01 0.02 0.02 0.03 0.03 0.03 0.03 0.03 0.04 0.04 0.04 0.04 0.03 0.02 0.01 0.01 0.01 0.01 0.01 0.02 0.02 0.02 0.02 0.02 0.02 0.02 0.02 0.02 0.02 0.02 0.01 0.01 0.01 0.01
0.02 0.02 0.02 0.02 0.02 0.03 0.04 0.04 0.05 0.06 0.06 0.06 0.05 0.05 0.04 0.04 0.03 0.02 0.01 0.01 0.01 0.01 0.01 0.02 0.02 0.03 0.03 0.03 0.03 0.02 0.02 0.02 0.02 0.01 0.01 0.01 0.01 0.01
0.03 0.03 0.04 0.04 0.04 0.04 0.05 0.05 0.05 0.04 0.04 0.04 0.03 0.03 0.03 0.02 0.02 0.02 0.01 0.01 0.01 0.01 0.01 0.01 0.02 0.03 0.04 0.05 0.05 0.05 0.05 0.05 0.05 0.04 0.03 0.03 0.02 0.02
0.03 0.02 0.02 0.02 0.02 0.02 0.03 0.03 0.03 0.02 0.02 0.02 0.02 0.01 0.01 0.01 0.02 0.02 0.01 0.02 0.02 0.02 0.02 0.02 0.03 0.03 0.03 0.04 0.05 0.05 0.05 0.05 0.06 0.06 0.05 0.03 0.03 0.03
0.03 0.03 0.02 0.02 0.03 0.03 0.03 0.03 0.02 0.01 0.01 0.01 0.01 0.01 0.01 0.01 0.02 0.02 0.02 0.02 0.02 0.02 0.03 0.03 0.03 0.03 0.03 0.03 0.04 0.04 0.04 0.04 0.03 0.03 0.03 0.03 0.02 0.02
0.03 0.03 0.03 0.02 0.03 0.03 0.03 0.03 0.02 0.01 0.01 0.01 0.01 0.01 0.01 0.01 0.01 0.01 0.01 0.01 0.01 0.01 0.01 0.01 0.02 0.02 0.02 0.02 0.02 0.02 0.03 0.03 0.03 0.04 0.03 0.03 0.03 0.03
0.04 0.04 0.04 0.04 0.04 0.03 0.03 0.03 0.03 0.02 0.01 0.01 0.01 0.01 0.01 0.01 0.01 0.01 0.01 0.01 0.01 0.01 0.01 0.01 0.01 0.01 0.01 0.01 0.02 0.02 0.02 0.02 0.02 0.02 0.02 0.02 0.02 0.01
MSLP
1014.76 1015.06 1015.39 1015.73 1016.04 1016.30 1016.46 1016.51 1016.46 1016.31 1016.12 1015.92 1015.76 1015.67 1015.68 1015.78 1015.97 1016.23 1016.52 1016.81 1017.07 1017.29 1017.46 1017.58 1017.66 1017.70 1017.73 1017.74 1017.75 1017.74 1017.72 1017.68 1017.61 1017.51 1017.38 1017.23 1017.05 1016.86
1014.52 1014.81 1015.12 1015.43 1015.72 1015.95 1016.10 1016.17 1016.16 1016.09 1015.99 1015.90 1015.86 1015.89 1016.01 1016.21 1016.47 1016.78 1017.11 1017.42 1017.69 1017.91 1018.08 1018.20 1018.28 1018.34 1018.37 1018.39 1018.40 1018.39 1018.35 1018.28 1018.17 1018.03 1017.85 1017.64 1017.41 1017.15
1014.42 1014.69 1014.96 1015.21 1015.44 1015.62 1015.75 1015.82 1015.85 1015.85 1015.85 1015.89 1015.98 1016.15 1016.39 1016.69 1017.04 1017.41 1017.77 1018.09 1018.37 1018.59 1018.76 1018.89 1018.98 1019.05 1019.10 1019.15 1019.17 1019.17 1019.13 1019.06 1018.93 1018.77 1018.55 1018.30 1018.02 1017.72
1014.53 1014.76 1014.97 1015.15 1015.31 1015.43 1015.52 1015.59 1015.64 1015.71 1015.80 1015.96 1016.17 1016.46 1016.82 1017.21 1017.63 1018.04 1018.41 1018.74 1019.01 1019.21 1019.37 1019.49 1019.60 1019.69 1019.77 1019.84 1019.90 1019.93 1019.91 1019.85 1019.73 1019.55 1019.32 1019.05 1018.75 1018.43
1014.87 1015.05 1015.20 1015.32 1015.41 1015.47 1015.52 1015.57 1015.64 1015.75 1015.92 1016.16 1016.47 1016.85 1017.29 1017.74 1018.20 1018.61 1018.98 1019.28 1019.52 1019.69 1019.83 1019.94 1020.04 1020.15 1020.26 1020.37 1020.46 1020.53 1020.55 1020.51 1020.40 1020.23 1020.01 1019.74 1019.45 1019.14
1015.45 1015.59 1015.68 1015.74 1015.77 1015.78 1015.79 1015.83 1015.90 1016.03 1016.25 1016.54 1016.91 1017.34 1017.81 1018.28 1018.72 1019.12 1019.45 1019.69 1019.87 1020.00 1020.09 1020.18 1020.27 1020.39 1020.52 1020.66 1020.78 1020.89 1020.94 1020.93 1020.85 1020.71 1020.50 1020.25 1019.98 1019.69
1016.22 1016.33 1016.39 1016.42 1016.41 1016.39 1016.37 1016.38 1016.45 1016.59 1016.81 1017.11 1017.49 1017.92 1018.38 1018.82 1019.23 1019.57 1019.82 1020.00 1020.10 1020.17 1020.21 1020.26 1020.33 1020.43 1020.56 1020.72 1020.87 1020.99 1021.07 1021.09 1021.03 1020.90 1020.72 1020.49 1020.24 1019.99
1017.11 1017.22 1017.27 1017.29 1017.27 1017.23 1017.21 1017.20 1017.26 1017.38 1017.58 1017.85 1018.21 1018.60 1019.00 1019.39 1019.72 1019.98 1020.16 1020.26 1020.28 1020.28 1020.26 1020.26 1020.29 1020.37 1020.49 1020.63 1020.78 1020.91 1020.99 1021.01 1020.96 1020.84 1020.66 1020.45 1020.22 1019.99
1018.06 1018.17 1018.25 1018.28 1018.28 1018.26 1018.22 1018.22 1018.24 1018.33 1018.49 1018.72 1019.02 1019.34 1019.67 1019.98 1020.24 1020.42 1020.52 1020.54 1020.50 1020.43 1020.36 1020.30 1020.29 1020.33 1020.41 1020.52 1020.64 1020.73 1020.78 1020.78 1020.71 1020.57 1020.38 1020.16 1019.94 1019.72
1018.98 1019.13 1019.25 1019.32 1019.36 1019.36 1019.34 1019.32 1019.33 1019.38 1019.49 1019.66 1019.87 1020.12 1020.38 1020.61 1020.79 1020.91 1020.95 1020.92 1020.84 1020.72 1020.60 1020.49 1020.43 1020.41 1020.43 1020.47 1020.53 1020.56 1020.56 1020.49 1020.37 1020.20 1019.97 1019.73 1019.48 1019.25
1019.84 1020.04 1020.22 1020.34 1020.42 1020.46 1020.45 1020.43 1020.42 1020.43 1020.48 1020.59 1020.73 1020.91 1021.09 1021.27 1021.40 1021.48 1021.49 1021.43 1021.32 1021.17 1021.02 1020.87 1020.75 1020.66 1020.61 1020.57 1020.53 1020.48 1020.38 1020.24 1020.05 1019.80 1019.53 1019.24 1018.95 1018.70
1020.63 1020.89 1021.12 1021.30 1021.42 1021.49 1021.50 1021.47 1021.44 1021.41 1021.41 1021.46 1021.54 1021.66 1021.79 1021.93 1022.03 1022.10 1022.10 1022.05 1021.93 1021.78 1021.60 1021.42 1021.24 1021.08 1020.94 1020.80 1020.66 1020.49 1020.30 1020.06 1019.78 1019.47 1019.13 1018.79 1018.47 1018.17
1021.38 1021.67 1021.95 1022.17 1022.32 1022.41 1022.42 1022.40 1022.34 1022.28 1022.23 1022.23 1022.26 1022.34 1022.45 1022.56 1022.66 1022.73 1022.75 1022.71 1022.61 1022.46 1022.27 1022.06 1021.83 1021.59 1021.35 1021.11 1020.86 1020.59 1020.28 1019.96 1019.60 1019.22 1018.83 1018.45 1018.09 1017.78
1022.09 1022.41 1022.70 1022.93 1023.10 1023.19 1023.21 1023.16 1023.09 1023.00 1022.92 1022.88 1022.89 1022.94 1023.02 1023.13 1023.24 1023.32 1023.36 1023.34 1023.26 1023.11 1022.91 1022.67 1022.39 1022.08 1021.76 1021.42 1021.07 1020.69 1020.30 1019.90 1019.48 1019.05 1018.64 1018.23 1017.87 1017.54
1022.77 1023.08 1023.36 1023.59 1023.74 1023.82 1023.83 1023.77 1023.68 1023.57 1023.48 1023.41 1023.40 1023.43 1023.51 1023.61 1023.72 1023.81 1023.87 1023.86 1023.79 1023.65 1023.43 1023.16 1022.83 1022.47 1022.07 1021.65 1021.21 1020.76 1020.31 1019.85 1019.39 1018.95 1018.53 1018.13 1017.78 1017.47
1023.41 1023.68 1023.92 1024.11 1024.24 1024.30 1024.29 1024.22 1024.12 1024.01 1023.91 1023.84 1023.81 1023.83 1023.90 1023.99 1024.09 1024.18 1024.23 1024.23 1024.15 1023.99 1023.76 1023.46 1023.09 1022.67 1022.22 1021.74 1021.25 1020.75 1020.26 1019.78 1019.32 1018.88 1018.47 1018.10 1017.78 1017.50
1023.95 1024.16 1024.34 1024.49 1024.58 1024.61 1024.59 1024.53 1024.44 1024.33 1024.23 1024.17 1024.14 1024.15 1024.20 1024.27 1024.35 1024.41 1024.44 1024.41 1024.31 1024.13 1023.88 1023.54 1023.15 1022.70 1022.21 1021.70 1021.18 1020.66 1020.16 1019.67 1019.22 1018.80 1018.43 1018.10 1017.81 1017.57
1024.35 1024.49 1024.61 1024.70 1024.77 1024.79 1024.77 1024.72 1024.65 1024.57 1024.50 1024.44 1024.42 1024.42 1024.44 1024.48 1024.52 1024.54 1024.52 1024.45 1024.31 1024.10 1023.82 1023.46 1023.04 1022.58 1022.08 1021.55 1021.03 1020.51 1020.01 1019.53 1019.10 1018.71 1018.35 1018.05 1017.80 1017.59
1024.57 1024.65 1024.71 1024.77 1024.82 1024.84 1024.85 1024.83 1024.81 1024.77 1024.73 1024.70 1024.68 1024.67 1024.67 1024.66 1024.64 1024.60 1024.52 1024.40 1024.21 1023.97 1023.65 1023.28 1022.85 1022.39 1021.89 1021.37 1020.84 1020.33 1019.84 1019.38 1018.95 1018.57 1018.23 1017.94 1017.69 1017.48
1024.61 1024.65 1024.68 1024.73 1024.78 1024.83 1024.88 1024.93 1024.96 1024.98 1024.98 1024.98 1024.96 1024.94 1024.89 1024.83 1024.75 1024.64 1024.49 1024.31 1024.07 1023.79 1023.45 1023.07 1022.64 1022.18 1021.69 1021.18 1020.67 1020.16 1019.67 1019.20 1018.77 1018.38 1018.02 1017.72 1017.45 1017.22
1024.50 1024.52 1024.56 1024.62 1024.71 1024.81 1024.93 1025.04 1025.14 1025.22 1025.27 1025.29 1025.28 1025.23 1025.15 1025.03 1024.88 1024.69 1024.47 1024.22 1023.94 1023.62 1023.27 1022.88 1022.46 1022.01 1021.53 1021.03 1020.53 1020.01 1019.51 1019.02 1018.56 1018.13 1017.73 1017.38 1017.07 1016.79
1024.30 1024.33 1024.41 1024.52 1024.66 1024.83 1025.02 1025.20 1025.38 1025.51 1025.60 1025.64 1025.62 1025.55 1025.41 1025.23 1025.01 1024.75 1024.46 1024.16 1023.83 1023.48 1023.12 1022.73 1022.32 1021.88 1021.41 1020.91 1020.40 1019.88 1019.34 1018.82 1018.31 1017.82 1017.37 1016.95 1016.58 1016.24
1024.06 1024.15 1024.29 1024.46 1024.68 1024.92 1025.18 1025.44 1025.67 1025.84 1025.96 1026.00 1025.96 1025.84 1025.66 1025.41 1025.12 1024.80 1024.45 1024.09 1023.73 1023.36 1022.98 1022.59 1022.19 1021.76 1021.29 1020.80 1020.28 1019.72 1019.16 1018.59 1018.02 1017.47 1016.95 1016.47 1016.03 1015.63
Thickness
5749 5748 5746 5748 5748 5746 5744 5741 5735 5731 5732 5736 5735 5736 5733 5731 5728 5726 5724 5721 5718 5716 5714 5713 5711 5710 5708 5707 5706 5705 5703 5702 5700 5699 5697 5696 5694 5692
5747 5745 5744 5747 5746 5745 5744 5742 5740 5735 5732 5734 5732 5732 5731 5729 5725 5723 5720 5718 5715 5713 5710 5708 5707 5706 5705 5704 5703 5701 5700 5698 5697 5695 5694 5692 5690 5688
5745 5744 5742 5742 5743 5743 5742 5741 5738 5735 5730 5730 5731 5729 5725 5723 5721 5719 5718 5715 5712 5709 5706 5704 5702 5701 5700 5699 5698 5696 5695 5693 5691 5689 5688 5687 5685 5683
5743 5741 5740 5740 5739 5739 5739 5737 5736 5733 5729 5724 5724 5723 5720 5718 5716 5715 5714 5712 5709 5704 5701 5699 5697 5695 5694 5693 5692 5690 5689 5687 5685 5684 5682 5680 5679 5677
5740 5738 5738 5737 5736 5736 5735 5734 5734 5733 5728 5723 5720 5718 5716 5714 5711 5710 5709 5705 5704 5701 5697 5693 5691 5689 5687 5686 5684 5683 5681 5680 5678 5677 5675 5673 5672 5670
5737 5736 5735 5734 5733 5732 5732 5730 5729 5727 5724 5720 5717 5715 5711 5709 5706 5704 5702 5700 5697 5696 5692 5689 5686 5683 5681 5679 5676 5675 5673 5672 5670 5668 5667 5665 5664 5662
5733 5732 5730 5728 5726 5726 5727 5725 5724 5722 5719 5717 5713 5710 5707 5703 5701 5700 5696 5693 5690 5688 5687 5685 5682 5679 5675 5671 5669 5667 5665 5663 5661 5659 5658 5656 5654 5653
5728 5727 5726 5723 5720 5718 5716 5715 5715 5714 5713 5710 5707 5703 5699 5698 5696 5694 5690 5687 5683 5682 5679 5678 5677 5673 5669 5665 5660 5658 5656 5654 5651 5649 5647 5646 5644 5642
5725 5723 5722 5720 5717 5716 5712 5710 5707 5705 5703 5703 5700 5697 5695 5692 5689 5687 5683 5680 5676 5674 5672 5669 5668 5664 5661 5656 5652 5649 5646 5644 5641 5639 5637 5635 5633 5631
5720 5718 5715 5713 5711 5710 5709 5706 5703 5700 5698 5696 5693 5690 5688 5685 5683 5681 5677 5674 5671 5667 5664 5661 5658 5655 5653 5648 5643 5640 5637 5634 5631 5629 5626 5624 5621 5619
5714 5711 5709 5706 5702 5701 5701 5699 5696 5692 5688 5685 5682 5680 5677 5675 5674 5674 5671 5669 5665 5661 5657 5653 5650 5647 5645 5641 5635 5631 5628 5625 5621 5618 5615 5612 5610 5608
5708 5704 5700 5698 5694 5693 5694 5692 5689 5686 5684 5681 5676 5673 5671 5668 5666 5664 5664 5662 5659 5654 5649 5645 5643 5639 5636 5633 5628 5623 5619 5615 5611 5608 5605 5602 5599 5597
5702 5698 5693 5688 5685 5684 5684 5683 5680 5678 5677 5675 5672 5668 5665 5662 5658 5655 5652 5651 5648 5644 5640 5636 5633 5631 5627 5623 5620 5616 5611 5607 5603 5598 5595 5591 5588 5585
5694 5690 5684 5679 5677 5675 5674 5672 5671 5671 5671 5668 5664 5660 5657 5653 5649 5645 5640 5637 5634 5630 5627 5625 5623 5619 5616 5613 5609 5605 5601 5597 5594 5589 5585 5579 5576 5572
5684 5678 5675 5671 5669 5667 5664 5663 5664 5664 5662 5658 5654 5650 5646 5642 5639 5635 5631 5627 5624 5620 5617 5613 5611 5608 5605 5602 5599 5594 5590 5586 5581 5577 5573 5570 5565 5562
5675 5669 5666 5663 5662 5659 5657 5657 5656 5654 5652 5649 5645 5640 5637 5634 5630 5627 5624 5621 5617 5613 5607 5602 5598 5595 5594 5589 5587 5583 5579 5574 5569 5564 5560 5557 5554 5551
5668 5666 5663 5660 5658 5655 5653 5650 5647 5644 5641 5639 5635 5631 5628 5624 5620 5618 5614 5612 5608 5603 5599 5593 5588 5584 5580 5577 5574 5570 5566 5562 5557 5552 5547 5547 5544 5540
5661 5659 5655 5653 5650 5648 5645 5641 5638 5635 5632 5629 5625 5621 5618 5614 5611 5607 5604 5601 5597 5593 5589 5584 5580 5577 5573 5567 5559 5557 5554 5550 5545 5540 5538 5536 5533 5529
5653 5651 5647 5644 5641 5639 5635 5632 5629 5625 5621 5619 5615 5611 5608 5605 5601 5598 5594 5590 5586 5583 5579 5574 5570 5566 5563 5559 5550 5542 5540 5537 5534 5531 5527 5524 5521 5517
5645 5642 5637 5634 5631 5629 5626 5622 5619 5615 5612 5609 5605 5602 5599 5595 5592 5588 5584 5578 5575 5571 5567 5563 5557 5552 5548 5544 5541 5535 5527 5525 5521 5518 5515 5512 5509 5503
5634 5631 5628 5625 5622 5618 5615 5611 5608 5605 5601 5598 5595 5590 5588 5585 5581 5578 5574 5565 5563 5561 5556 5551 5544 5537 5536 5534 5531 5527 5520 5512 5507 5503 5501 5500 5498 5496
5624 5621 5618 5615 5612 5608 5605 5602 5598 5595 5591 5589 5585 5581 5578 5574 5569 5565 5562 5559 5554 5550 5545 5541 5535 5532 5529 5525 5521 5517 5512 5505 5499 5494 5489 5485 5484 5483
5615 5612 5610 5607 5603 5599 5596 5593 5589 5586 5582 5578 5575 5571 5567 5563 5559 5555 5551 5547 5543 5539 5535 5532 5528 5524 5520 5516 5512 5508 5502 5498 5495 5490 5485 5478 5473 5470